EW2235 Weather Reports


Display with metric or nautical units.
time (UTC)temp
F
wind
direction
speed
MPH
gust
MPH
rain 1hr
in
rain 24hr
in
rain mn
in
humidity
%
barometer
mb
20260903181821 59 238 0.0 3.0 0.00 0.62 0.25 89 1010.3
20260903181326 59 210 0.0 2.0 0.00 0.62 0.25 90 1010.4
20260903180834 59 205 0.0 1.0 0.00 0.62 0.25 91 1010.4
20260903180331 58 70 0.0 2.0 0.00 0.70 0.25 91 1010.3
20260903175827 58 307 0.0 4.0 0.00 0.70 0.25 91 1010.4
20260903175333 58 62 0.0 2.0 0.00 0.70 0.25 91 1010.3
20260903174813 58 81 0.0 4.0 0.00 0.70 0.25 92 1010.3
20260903174318 58 178 0.0 4.0 0.00 0.70 0.25 91 1010.3
20260903173849 58 79 0.0 3.0 0.00 0.70 0.25 92 1010.2
20260903173346 58 89 0.0 3.0 0.00 0.70 0.25 91 1010.2
20260903172835 59 215 0.0 3.0 0.00 0.70 0.25 92 1010.3
20260903172335 58 108 0.0 4.0 0.00 0.70 0.25 93 1010.2
20260903171844 57 219 1.0 4.0 0.00 0.70 0.25 92 1010.3
20260903171351 57 242 1.0 6.0 0.01 0.70 0.25 93 1010.2
20260903170900 57 124 2.0 8.0 0.01 0.70 0.25 93 1010.2
20260903170339 57 141 2.0 7.0 0.01 0.70 0.25 93 1010.3
20260903165333 56 165 1.0 5.0 0.01 0.70 0.25 93 1010.5
20260903164841 56 136 0.0 0.0 0.02 0.70 0.25 93 1010.5
20260903164336 55 47 0.0 0.0 0.04 0.70 0.25 93 1010.5
20260903163845 55 8 0.0 0.0 0.04 0.70 0.25 93 1010.5
20260903163351 54 8 0.0 0.0 0.05 0.70 0.25 93 1010.5
20260903162834 54 8 0.0 0.0 0.05 0.70 0.25 93 1010.6
20260903162340 54 8 0.0 0.0 0.05 0.70 0.25 93 1010.6
20260903161851 54 8 0.0 0.0 0.06 0.70 0.25 93 1010.5
20260903160846 53 8 0.0 3.0 0.05 0.69 0.24 93 1010.5
20260903160359 53 340 0.0 3.0 0.06 0.69 0.24 93 1010.4
20260903155839 53 347 0.0 1.0 0.06 0.69 0.24 93 1010.4
20260903155345 53 333 0.0 1.0 0.06 0.69 0.24 93 1010.5
20260903154854 53 338 0.0 4.0 0.06 0.68 0.23 93 1010.4
20260903154333 53 10 1.0 4.0 0.04 0.66 0.21 93 1010.5
20260903153843 53 153 0.0 2.0 0.04 0.66 0.21 93 1010.5
20260903153349 53 38 0.0 2.0 0.03 0.65 0.20 93 1010.5
20260903152851 53 23 0.0 2.0 0.04 0.65 0.20 93 1010.5
20260903152337 53 312 0.0 2.0 0.04 0.65 0.20 93 1010.4
20260903151847 53 347 0.0 3.0 0.04 0.64 0.19 93 1010.4
20260903151346 53 354 0.0 3.0 0.04 0.64 0.19 93 1010.4
20260903150836 53 306 0.0 2.0 0.04 0.64 0.19 93 1010.3
20260903150358 53 28 0.0 3.0 0.03 0.63 0.18 93 1010.3
20260903145841 53 356 0.0 8.0 0.04 0.63 0.18 93 1010.2
20260903145347 53 49 0.0 8.0 0.04 0.63 0.18 93 1010.2
20260903144857 53 181 0.0 5.0 0.03 0.62 0.17 93 1010.2
20260903144315 53 132 1.0 6.0 0.03 0.62 0.17 93 1010.1
20260903143817 53 259 1.0 6.0 0.04 0.62 0.17 93 1010.1
20260903143323 53 25 1.0 5.0 0.04 0.62 0.17 93 1010.1
20260903142825 53 233 0.0 4.0 0.03 0.61 0.16 93 1010.1
20260903142331 53 343 0.0 4.0 0.03 0.61 0.16 93 1010.0
20260903141319 53 37 0.0 0.0 0.03 0.60 0.15 93 1009.9
20260903140822 53 345 0.0 2.0 0.06 0.60 0.15 93 1009.9
20260903140328 53 33 0.0 1.0 0.07 0.60 0.15 93 1009.7
20260903135831 53 8 0.0 1.0 0.06 0.59 0.14 93 1009.8
20260903135337 53 333 0.0 9.0 0.06 0.59 0.14 93 1009.8
20260903134819 53 182 2.0 9.0 0.06 0.59 0.14 93 1009.7
20260903134317 53 338 0.0 1.0 0.07 0.59 0.14 93 1009.8
20260903133819 53 338 0.0 1.0 0.06 0.58 0.13 93 1009.7
20260903133325 53 338 0.0 1.0 0.07 0.58 0.13 93 1009.7
20260903132827 53 6 0.0 1.0 0.08 0.58 0.13 93 1009.7
20260903132334 53 49 0.0 0.0 0.08 0.58 0.13 93 1009.8
20260903131828 53 49 0.0 2.0 0.08 0.58 0.13 93 1009.6
20260903131324 53 37 0.0 2.0 0.07 0.57 0.12 93 1009.7
20260903130834 53 11 0.0 2.0 0.04 0.54 0.09 93 1009.6
20260903130313 53 325 0.0 3.0 0.03 0.53 0.08 93 1009.7
20260903125815 53 42 0.0 3.0 0.03 0.53 0.08 93 1009.7
20260903125321 53 25 0.0 1.0 0.03 0.53 0.08 93 1009.7
20260903124824 53 23 0.0 1.0 0.02 0.52 0.07 93 1009.7
20260903124323 53 19 0.0 0.0 0.02 0.52 0.07 93 1009.7
20260903123833 53 17 0.0 6.0 0.02 0.52 0.07 93 1009.8
20260903123312 53 65 0.0 6.0 0.00 0.50 0.05 93 1009.8
20260903122814 53 140 0.0 2.0 0.00 0.50 0.05 93 1009.7
20260903122320 53 23 0.0 3.0 0.00 0.50 0.05 93 1009.6
20260903121823 53 13 0.0 3.0 0.00 0.50 0.05 93 1009.7
20260903121329 53 134 0.0 3.0 0.00 0.50 0.05 93 1009.7
20260903120832 53 4 0.0 1.0 0.00 0.50 0.05 93 1009.7
20260903120311 53 13 0.0 1.0 0.00 0.50 0.05 93 1009.6
20260903115815 53 16 0.0 0.0 0.00 0.50 0.05 93 1009.7
20260903115320 53 352 0.0 4.0 0.00 0.50 0.05 93 1009.7
20260903114820 53 349 0.0 4.0 0.00 0.50 0.05 93 1009.7
20260903114326 53 54 0.0 1.0 0.00 0.50 0.05 93 1009.8
20260903113829 53 30 0.0 5.0 0.00 0.50 0.05 93 1009.8
20260903113334 53 94 1.0 5.0 0.00 0.50 0.05 93 1009.8
20260903112816 53 353 0.0 2.0 0.00 0.50 0.05 93 1009.7
20260903112315 53 8 0.0 2.0 0.00 0.50 0.05 93 1009.8
20260903111824 53 356 0.0 0.0 0.00 0.50 0.05 93 1009.8
20260903111331 53 356 0.0 0.0 0.00 0.50 0.05 93 1009.8
20260903110318 53 11 1.0 4.0 0.00 0.50 0.05 93 1009.8
20260903105827 53 314 0.0 3.0 0.00 0.50 0.05 93 1009.8
20260903105326 53 336 0.0 3.0 0.00 0.50 0.05 93 1009.8
20260903104828 54 47 0.0 1.0 0.00 0.50 0.05 93 1009.8
20260903104314 54 38 0.0 6.0 0.00 0.50 0.05 93 1009.9
20260903103817 54 341 0.0 6.0 0.00 0.50 0.05 93 1009.9
20260903103323 54 315 1.0 5.0 0.00 0.50 0.05 93 1009.9
20260903102832 54 37 0.0 1.0 0.00 0.50 0.05 93 1010.0
20260903102312 54 329 0.0 4.0 0.00 0.50 0.05 93 1009.9
20260903101814 54 340 0.0 2.0 0.00 0.50 0.05 93 1009.9
20260903101320 54 13 0.0 2.0 0.00 0.50 0.05 93 1009.9
20260903100822 54 18 0.0 3.0 0.00 0.50 0.05 93 1009.8
20260903100330 54 349 0.0 2.0 0.00 0.50 0.05 93 1009.7
20260903095831 54 342 0.0 1.0 0.00 0.50 0.05 93 1009.6
20260903095330 54 338 0.0 2.0 0.00 0.50 0.05 93 1009.6
20260903094812 54 323 0.0 2.0 0.00 0.50 0.05 93 1009.7
20260903094319 54 224 0.0 2.0 0.00 0.50 0.05 93 1009.7
20260903093821 54 219 0.0 6.0 0.00 0.50 0.05 93 1009.7
20260903093328 54 57 0.0 6.0 0.01 0.50 0.05 93 1009.7
20260903092831 54 141 0.0 4.0 0.01 0.50 0.05 93 1009.8
20260903092338 54 338 0.0 2.0 0.01 0.50 0.05 93 1009.7
20260903091819 54 359 0.0 2.0 0.01 0.50 0.05 93 1009.7
20260903091319 54 107 0.0 0.0 0.02 0.50 0.05 93 1009.8
20260903090821 54 338 0.0 3.0 0.04 0.50 0.05 93 1009.9
20260903090327 54 314 0.0 3.0 0.04 0.50 0.05 93 1010.0
20260903085830 54 46 0.0 1.0 0.04 0.50 0.05 93 1009.9
20260903085336 54 17 0.0 0.0 0.04 0.50 0.05 93 1010.0
20260903084818 54 15 0.0 3.0 0.04 0.50 0.05 93 1010.0
20260903084318 54 357 0.0 3.0 0.04 0.50 0.05 93 1010.0
20260903083827 54 130 0.0 0.0 0.04 0.50 0.05 93 1010.0
20260903083327 54 26 0.0 0.0 0.03 0.49 0.04 92 1010.0
20260903082830 54 340 0.0 1.0 0.03 0.49 0.04 92 1010.1
20260903082316 54 266 0.0 1.0 0.03 0.49 0.04 92 1010.0
20260903081826 54 314 0.0 5.0 0.03 0.48 0.03 92 1010.1
20260903081325 54 311 1.0 5.0 0.03 0.48 0.03 92 1010.1
20260903080836 54 29 0.0 3.0 0.01 0.46 0.01 92 1010.1
20260903080314 54 17 0.0 4.0 0.01 0.46 0.01 92 1010.1
20260903075817 54 35 0.0 2.0 0.01 0.46 0.01 92 1010.1
20260903075323 54 317 0.0 4.0 0.01 0.46 0.01 92 1010.2
20260903074826 54 333 0.0 2.0 0.01 0.46 0.01 93 1010.1
20260903074325 54 335 0.0 2.0 0.01 0.46 0.01 92 1010.1
20260903073818 55 331 0.0 6.0 0.01 0.46 0.01 92 1010.1
20260903073316 55 233 1.0 6.0 0.01 0.46 0.01 92 1010.1
20260903072818 55 326 0.0 1.0 0.01 0.46 0.01 92 1010.1
20260903072324 55 18 0.0 6.0 0.01 0.46 0.01 92 1010.0
20260903071826 55 141 0.0 6.0 0.00 0.45 0.00 92 1010.0
20260903071333 55 225 0.0 4.0 0.00 0.45 0.00 92 1010.0
20260903070815 55 294 0.0 4.0 0.00 0.45 0.00 92 1010.0
20260903070314 55 136 1.0 7.0 0.00 0.45 0.45 92 1010.0
20260903065816 55 345 0.0 5.0 0.00 0.45 0.45 92 1010.0
20260903065323 55 207 0.0 5.0 0.00 0.45 0.45 92 1010.0
20260903064812 55 320 0.0 7.0 0.00 0.45 0.45 92 1010.0
20260903064313 55 221 1.0 5.0 0.00 0.45 0.45 92 1010.0
20260903063822 55 29 0.0 3.0 0.00 0.45 0.45 92 1010.0
20260903063321 55 190 0.0 4.0 0.00 0.45 0.45 92 1010.0
20260903062831 55 354 1.0 4.0 0.00 0.45 0.45 92 1010.0
20260903062330 55 332 0.0 1.0 0.00 0.45 0.45 92 1010.0
20260903061813 55 150 0.0 3.0 0.00 0.45 0.45 92 1010.0
20260903061312 55 321 0.0 3.0 0.00 0.45 0.45 92 1010.1
20260903060821 55 225 0.0 3.0 0.00 0.45 0.45 92 1010.1
20260903060320 55 113 0.0 6.0 0.00 0.45 0.45 92 1010.1
20260903055330 55 19 0.0 6.0 0.00 0.45 0.45 92 1010.1
20260903054826 55 316 0.0 2.0 0.00 0.45 0.45 92 1010.1
20260903054313 55 6 0.0 0.0 0.00 0.45 0.45 92 1010.0
20260903053822 55 37 0.0 4.0 0.00 0.45 0.45 92 1010.0
20260903053322 55 298 0.0 4.0 0.00 0.45 0.45 92 1010.1
20260903052832 55 112 0.0 1.0 0.00 0.45 0.45 92 1010.0
20260903052329 55 7 0.0 0.0 0.00 0.45 0.45 92 1010.0
20260903051832 56 6 0.0 0.0 0.00 0.45 0.45 92 1010.0
20260903051338 55 342 0.0 7.0 0.00 0.45 0.45 92 1010.0
20260903050821 56 228 1.0 7.0 0.00 0.45 0.45 92 1010.1
20260903050320 56 108 0.0 1.0 0.00 0.45 0.45 92 1010.0
20260903045830 56 342 0.0 0.0 0.00 0.45 0.45 92 1010.0
20260903045329 56 355 0.0 0.0 0.00 0.45 0.45 92 1010.0
20260903044840 56 316 0.0 0.0 0.00 0.45 0.45 92 1010.0
20260903044317 56 205 0.0 0.0 0.00 0.45 0.45 92 1009.9
20260903043839 56 205 0.0 0.0 0.00 0.45 0.45 92 1009.9
20260903043345 56 205 0.0 2.0 0.00 0.45 0.45 92 1009.8
20260903042835 56 321 0.0 5.0 0.00 0.45 0.45 92 1009.8
20260903042334 56 148 0.0 3.0 0.00 0.45 0.45 92 1009.7
20260903041843 56 184 0.0 2.0 0.00 0.45 0.45 92 1009.7
20260903041349 56 199 0.0 2.0 0.00 0.45 0.45 92 1009.7
20260903040858 56 333 0.0 2.0 0.00 0.45 0.45 92 1009.7
20260903040337 56 330 0.0 2.0 0.00 0.45 0.45 92 1009.6
20260903035826 56 4 0.0 1.0 0.00 0.45 0.45 92 1009.5
20260903035324 56 121 0.0 2.0 0.00 0.45 0.45 92 1009.4
20260903034827 56 223 0.0 2.0 0.00 0.45 0.45 92 1009.3
20260903034333 56 311 0.0 1.0 0.00 0.45 0.45 92 1009.2
20260903033816 57 13 0.0 3.0 0.00 0.45 0.45 92 1009.1
20260903033315 57 356 0.0 5.0 0.00 0.45 0.45 92 1009.0
20260903032826 57 155 1.0 6.0 0.00 0.45 0.45 92 1008.9
20260903032325 57 203 1.0 6.0 0.00 0.45 0.45 92 1008.9
20260903031827 57 77 0.0 4.0 0.00 0.45 0.45 92 1008.8
20260903031335 57 61 0.0 6.0 0.00 0.45 0.45 92 1008.9
20260903030843 57 221 0.0 6.0 0.00 0.45 0.45 92 1008.9
20260903030342 58 116 0.0 3.0 0.00 0.45 0.45 92 1008.8
20260903025846 58 191 0.0 2.0 0.00 0.45 0.45 92 1008.8
20260903025351 58 71 0.0 0.0 0.00 0.45 0.45 92 1008.7
20260903024900 58 70 0.0 1.0 0.00 0.45 0.45 92 1008.6
20260903024339 58 217 0.0 7.0 0.00 0.45 0.45 92 1008.5
20260903023848 58 192 1.0 7.0 0.00 0.45 0.45 92 1008.5
20260903023325 58 182 0.0 3.0 0.00 0.45 0.45 92 1008.4
20260903022315 58 295 0.0 1.0 0.00 0.45 0.45 92 1008.4
20260903021824 58 334 0.0 2.0 0.01 0.45 0.45 92 1008.5
20260903021331 58 343 0.0 2.0 0.01 0.45 0.45 92 1008.4
20260903020813 58 302 0.0 2.0 0.02 0.45 0.45 92 1008.4
20260903020313 58 346 0.0 2.0 0.02 0.45 0.45 92 1008.3
20260903015822 58 182 0.0 0.0 0.02 0.45 0.45 92 1008.3
20260903015321 59 287 0.0 2.0 0.02 0.45 0.45 92 1008.2
20260903014824 59 14 0.0 2.0 0.02 0.45 0.45 92 1008.2
20260903014330 59 345 0.0 4.0 0.02 0.45 0.45 92 1008.1
20260903013812 59 307 1.0 4.0 0.02 0.45 0.45 92 1008.1
20260903013312 59 124 0.0 1.0 0.02 0.45 0.45 92 1008.1
20260903012821 59 75 0.0 1.0 0.03 0.45 0.45 92 1008.1
20260903012321 58 63 0.0 4.0 0.03 0.45 0.45 92 1007.9
20260903011814 58 291 0.0 4.0 0.02 0.44 0.44 92 1007.9
20260903011321 58 65 0.0 1.0 0.01 0.43 0.43 92 1007.9
20260903010823 59 239 0.0 0.0 0.01 0.43 0.43 92 1008.0
20260903010322 58 58 0.0 1.0 0.01 0.43 0.43 92 1007.9
20260903005829 58 158 0.0 2.0 0.02 0.43 0.43 92 1008.0
20260903005328 58 153 0.0 1.0 0.02 0.43 0.43 92 1007.9
20260903004838 58 289 0.0 3.0 0.03 0.43 0.43 92 1007.8
20260903004318 59 274 0.0 3.0 0.03 0.43 0.43 92 1007.8
20260903003820 58 296 0.0 3.0 0.03 0.43 0.43 92 1007.8
20260903003327 58 233 0.0 1.0 0.03 0.43 0.43 92 1007.7
20260903002830 58 161 0.0 1.0 0.02 0.42 0.42 92 1007.7
20260903002329 58 127 0.0 3.0 0.02 0.42 0.42 92 1007.6
20260903001818 58 276 0.0 3.0 0.02 0.42 0.42 92 1007.7
20260903001317 58 301 0.0 1.0 0.02 0.42 0.42 92 1007.6
20260903000818 58 316 0.0 1.0 0.02 0.42 0.42 92 1007.6
20260903000325 58 304 0.0 2.0 0.03 0.42 0.42 92 1007.6
20260902235824 58 2 0.0 3.0 0.03 0.41 0.41 92 1007.6
20260902235330 58 323 0.0 3.0 0.05 0.41 0.41 92 1007.5
20260902234813 58 340 0.0 1.0 0.05 0.40 0.40 92 1007.5
20260902234312 58 212 0.0 1.0 0.08 0.40 0.40 92 1007.4
20260902233823 58 304 0.0 3.0 0.08 0.40 0.40 92 1007.4
20260902233321 58 316 0.0 3.0 0.08 0.40 0.40 92 1007.5
20260902232823 58 303 0.0 3.0 0.09 0.40 0.40 92 1007.5
20260902232330 58 302 0.0 7.0 0.09 0.40 0.40 92 1007.4
20260902231832 58 347 0.0 7.0 0.09 0.40 0.40 92 1007.3
20260902231311 58 26 1.0 7.0 0.09 0.40 0.40 92 1007.2
20260902230821 58 274 0.0 5.0 0.09 0.40 0.40 92 1007.1
20260902230320 58 356 0.0 8.0 0.08 0.39 0.39 92 1007.1
20260902225936 58 305 1.0 6.0 0.07 0.38 0.38 92 1007.1
20260902225346 58 335 0.0 6.0 0.04 0.35 0.35 92 1007.1
20260902224835 58 126 0.0 6.0 0.04 0.35 0.35 92 1006.9
20260902224357 58 117 1.0 4.0 0.01 0.32 0.32 92 1007.0
20260902223840 58 4 0.0 6.0 0.01 0.32 0.32 92 1006.8
20260902223345 58 94 0.0 6.0 0.01 0.32 0.32 92 1006.9
20260902222854 58 315 1.0 6.0 0.00 0.31 0.31 92 1006.7
20260902222334 58 314 1.0 6.0 0.00 0.31 0.31 92 1006.7
20260902221823 58 303 0.0 11.0 0.00 0.31 0.31 92 1006.7
20260902221322 58 340 1.0 11.0 0.00 0.31 0.31 92 1006.7
20260902220832 58 215 0.0 7.0 0.01 0.31 0.31 92 1006.8
20260902220331 58 64 1.0 7.0 0.01 0.31 0.31 92 1006.6
20260902215813 58 193 0.0 10.0 0.01 0.31 0.31 92 1006.7
20260902215312 58 141 1.0 10.0 0.01 0.31 0.31 92 1006.6
20260902214823 57 348 0.0 4.0 0.01 0.31 0.31 92 1006.6
20260902214322 57 356 0.0 3.0 0.01 0.31 0.31 92 1006.7
20260902213832 57 56 0.0 6.0 0.01 0.31 0.31 92 1006.7
20260902213330 57 317 1.0 4.0 0.01 0.31 0.31 92 1006.6
20260902212818 57 40 0.0 2.0 0.01 0.31 0.31 92 1006.7
20260902212323 57 342 0.0 7.0 0.02 0.31 0.31 92 1006.6
20260902211825 57 347 1.0 7.0 0.02 0.31 0.31 92 1006.6
20260902211330 57 128 0.0 7.0 0.02 0.31 0.31 92 1006.7
20260902210819 57 76 0.0 8.0 0.01 0.30 0.30 92 1006.7
20260902210317 57 129 1.0 8.0 0.01 0.30 0.30 92 1006.7
20260902205825 57 181 0.0 4.0 0.01 0.30 0.30 92 1006.7
20260902205331 57 68 0.0 11.0 0.02 0.30 0.30 92 1006.8
20260902204834 57 129 1.0 11.0 0.03 0.30 0.30 92 1006.7
20260902204341 57 77 2.0 9.0 0.04 0.30 0.30 92 1006.6
20260902203850 57 93 4.0 9.0 0.05 0.30 0.30 92 1006.6
20260902203355 57 124 1.0 10.0 0.06 0.30 0.30 92 1006.7
20260902202838 57 143 3.0 9.0 0.07 0.30 0.30 92 1006.4
20260902202340 57 107 1.0 7.0 0.08 0.29 0.29 92 1006.4
20260902201850 57 77 0.0 10.0 0.10 0.29 0.29 92 1006.5
20260902201350 57 124 3.0 10.0 0.11 0.29 0.29 92 1006.4
20260902200320 57 97 0.0 7.0 0.13 0.29 0.29 92 1006.4
20260902195822 57 84 1.0 7.0 0.14 0.29 0.29 92 1006.3
20260902195328 57 141 1.0 8.0 0.14 0.28 0.28 92 1006.4
20260902194831 57 110 3.0 8.0 0.14 0.27 0.27 92 1006.5
20260902194330 57 86 1.0 7.0 0.14 0.26 0.26 92 1006.8
20260902193819 57 146 2.0 10.0 0.14 0.25 0.25 92 1006.6
20260902193317 57 127 3.0 10.0 0.13 0.24 0.24 92 1006.6
20260902192827 57 71 2.0 5.0 0.13 0.23 0.23 92 1006.7
20260902192333 57 122 1.0 5.0 0.11 0.21 0.21 92 1006.9
20260902191819 57 89 1.0 6.0 0.09 0.19 0.19 92 1007.0
20260902191318 57 120 1.0 8.0 0.08 0.17 0.17 92 1007.1
20260902190826 57 125 2.0 8.0 0.07 0.16 0.16 92 1007.1
20260902190313 57 98 2.0 11.0 0.08 0.16 0.16 92 1007.0
20260902185815 57 78 1.0 11.0 0.08 0.15 0.15 92 1006.9
20260902184832 57 78 1.0 8.0 0.07 0.13 0.13 91 1006.9
20260902184312 57 120 1.0 8.0 0.07 0.12 0.12 91 1006.9
20260902183815 57 121 1.0 4.0 0.07 0.11 0.11 91 1006.9
20260902183321 57 81 1.0 4.0 0.08 0.11 0.11 91 1006.9
20260902182824 57 136 0.0 3.0 0.07 0.10 0.10 91 1007.1
20260902182330 57 107 0.0 1.0 0.08 0.10 0.10 91 1007.1